This is the latest recevied weather packets stored in our database for station/object WC4PEM-14. If no packets are shown the sender has not sent any weather packets the latest 10 day(s).
| Time | Temp. | Humidity | Pressure | Rain* | Wind** | Luminosity | Snow |
|---|---|---|---|---|---|---|---|
| 1777923188 | 28.33° C | 47% | 1014.6 hPa | 0 mm | - | - | - |
| 1777923010 | 28.89° C | 46% | 1014.6 hPa | 0 mm | - | - | - |
| 1777922888 | 28.89° C | 46% | 1014.6 hPa | 0 mm | - | - | - |
| 1777922588 | 28.89° C | 47% | 1014.5 hPa | 0 mm | - | - | - |
| 1777922288 | 28.89° C | 46% | 1014.8 hPa | 0 mm | - | - | - |
| 1777921988 | 29.44° C | 46% | 1014.7 hPa | 0 mm | - | - | - |
| 1777921820 | 28.89° C | 47% | 1014.8 hPa | 0 mm | - | - | - |
| 1777921688 | 28.89° C | 47% | 1014.8 hPa | 0 mm | - | - | - |
| 1777921563 | 28.89° C | 46% | 1014.8 hPa | 0 mm | - | - | - |
| 1777921388 | 28.89° C | 46% | 1014.8 hPa | 0 mm | - | - | - |
| 1777921235 | 29.44° C | 46% | 1014.9 hPa | 0 mm | - | - | - |
| 1777921089 | 29.44° C | 46% | 1014.9 hPa | 0 mm | - | - | - |
| 1777920912 | 28.33° C | 46% | 1015.1 hPa | 0 mm | - | - | - |
| 1777920788 | 28.33° C | 46% | 1015.1 hPa | 0 mm | - | - | - |
| 1777920489 | 28.33° C | 47% | 1015.2 hPa | 0 mm | - | - | - |
| 1777920312 | 28.89° C | 46% | 1015.3 hPa | 0 mm | - | - | - |
| 1777920188 | 28.89° C | 46% | 1015.3 hPa | 0 mm | - | - | - |
| 1777920107 | 30° C | 46% | 1015.5 hPa | 0 mm | - | - | - |
| 1777919888 | 30° C | 46% | 1015.5 hPa | 0 mm | - | - | - |
| 1777919758 | 29.44° C | 47% | 1015.5 hPa | 0 mm | - | - | - |
| 1777919589 | 29.44° C | 47% | 1015.5 hPa | 0 mm | - | - | - |
| 1777919288 | 29.44° C | 46% | 1015.4 hPa | 0 mm | - | - | - |
| 1777918988 | 30° C | 45% | 1015.6 hPa | 0 mm | - | - | - |
| 1777918859 | 29.44° C | 46% | 1015.6 hPa | 0 mm | - | - | - |
| 1777918688 | 29.44° C | 46% | 1015.6 hPa | 0 mm | - | - | - |
* Rain latest hour (hover to see other rain measurements)
** Current wind speed in m/s (hover to see current wind gust speed)